Theta_e
303 307 309 310 309 308 306 305 305 304 304 307 309 311 309 308 307 304 305 303 300 305 311 309 306 306 304 299 296 296 296 295 295 295 294 294 294 294 293 293 293 293 292 292 292 292 292 293 293 293 293 293 294 294 294 294 294 294 294 294 294 294 294 294 294 295 295 296 297 298 299 300 300 300 300 300 299 299 299 299 299 299 299 299 299 299
304 307 309 307 306 304 304 304 303 304 305 307 310 312 308 306 306 303 303 303 300 303 309 307 306 307 302 296 295 295 294 294 294 294 294 294 293 293 293 293 293 292 292 291 291 291 291 291 292 292 292 292 292 292 293 293 292 293 293 293 293 293 293 293 293 293 293 293 294 294 295 297 298 299 300 300 300 299 299 299 299 299 298 298 298 298
307 308 309 305 300 300 302 303 304 306 308 308 308 309 308 305 304 304 304 304 301 302 309 307 305 308 301 294 295 294 294 294 293 294 293 293 293 293 293 292 292 292 291 291 291 290 290 290 290 290 291 291 291 291 291 291 291 291 291 291 291 292 292 292 292 292 292 293 293 293 293 294 295 296 297 298 298 299 299 299 298 298 298 298 297 297
308 308 306 299 297 303 306 305 305 307 308 308 306 307 308 305 303 306 306 305 302 300 306 307 305 307 300 294 295 294 294 294 293 293 293 293 293 292 292 292 292 292 291 291 291 290 290 290 290 290 290 290 290 290 290 290 290 290 290 290 290 290 290 290 290 290 291 291 292 293 293 293 293 294 294 295 295 296 296 297 297 297 296 296 296 296
308 305 302 299 302 307 307 307 307 308 311 309 307 305 305 305 303 304 304 302 302 300 301 304 307 308 301 296 296 294 294 294 293 293 293 292 292 292 292 292 291 291 291 291 291 290 290 290 290 290 289 289 289 290 290 290 290 289 289 289 289 289 289 289 289 289 289 290 291 292 293 293 294 294 294 294 294 294 294 294 295 294 294 294 294 294
308 302 301 304 308 308 306 307 305 305 312 312 309 305 302 304 303 302 303 302 306 307 302 302 306 309 303 296 295 294 293 293 293 292 293 292 292 292 292 291 291 291 291 290 290 290 290 290 290 289 289 289 289 290 290 290 290 289 288 288 289 289 289 289 288 288 288 289 289 290 291 291 292 293 293 293 293 293 294 294 294 294 294 294 294 294
306 301 302 306 308 307 306 306 303 303 310 309 306 304 301 302 303 303 304 302 305 306 301 300 304 306 303 297 295 294 293 293 293 292 292 292 291 291 291 291 291 290 290 290 290 290 290 290 290 289 289 289 289 289 290 291 290 289 287 287 288 288 288 288 288 287 287 288 288 288 289 289 289 290 291 291 291 292 292 293 293 293 294 294 294 294
304 306 309 310 307 306 305 304 303 303 307 308 304 303 302 302 303 304 305 304 305 304 301 302 302 303 305 300 294 294 295 293 293 292 292 292 291 291 291 291 291 290 290 290 290 289 289 289 289 289 289 288 289 289 290 291 291 288 287 287 287 288 288 288 288 287 287 287 288 288 288 288 288 289 289 290 290 291 291 291 292 292 293 293 294 294
303 309 310 309 307 304 304 303 303 303 307 310 305 301 301 301 303 304 307 308 303 302 303 304 301 302 305 301 294 295 296 293 292 293 292 292 291 291 291 290 290 290 290 289 289 289 289 289 289 289 289 288 288 289 290 291 290 288 286 286 286 287 287 287 287 287 287 287 288 288 288 288 288 288 288 289 289 289 290 290 291 291 291 292 292 293
301 305 303 305 306 304 305 304 303 305 306 306 302 300 299 299 301 301 304 308 305 302 302 303 301 301 302 302 299 297 296 293 293 293 292 291 291 291 290 290 290 290 290 289 289 289 288 288 289 289 289 288 287 289 291 291 290 288 286 286 286 286 286 286 286 287 286 287 287 288 288 288 288 288 288 288 288 288 289 289 290 290 291 291 291 292
299 302 302 304 304 303 305 303 300 302 302 301 302 302 301 299 301 303 303 305 305 303 301 300 300 301 301 301 298 296 295 293 293 292 292 291 290 290 290 290 290 290 289 289 288 288 288 288 288 289 289 288 287 288 290 291 289 287 287 286 286 286 286 286 286 286 286 287 287 288 288 288 288 288 288 288 288 288 288 288 289 289 289 290 290 291
302 304 303 301 301 301 303 302 299 298 299 301 303 302 300 299 303 309 311 307 302 300 301 302 302 301 301 300 295 294 294 293 293 293 292 291 290 290 290 290 290 289 289 288 288 288 287 287 287 288 288 287 287 288 289 290 289 287 287 286 285 285 286 286 285 285 286 287 287 288 288 288 287 287 287 288 288 288 288 288 288 288 288 289 289 290
306 303 299 298 299 300 303 304 303 303 303 303 304 303 301 302 303 305 308 306 302 300 301 303 301 300 301 298 294 294 294 293 293 292 292 291 290 290 290 290 289 289 288 288 287 287 287 286 287 288 288 287 286 287 288 289 288 287 287 286 285 285 285 286 285 285 285 286 287 287 287 287 287 287 287 287 287 288 288 288 288 288 288 288 288 289
308 305 301 301 301 299 300 303 304 305 305 304 304 304 303 303 302 301 302 302 301 300 299 299 298 300 301 297 294 294 293 293 292 291 291 291 290 290 289 289 289 288 288 287 287 286 286 286 286 287 287 286 286 286 287 288 288 287 286 286 285 285 285 286 285 285 285 286 286 286 287 287 287 287 287 287 287 287 287 287 287 288 288 288 288 288
305 305 303 302 300 300 302 301 301 303 304 303 302 303 304 302 301 301 304 302 300 300 300 298 299 303 301 296 294 294 292 292 292 291 291 291 290 290 289 288 288 287 287 287 286 286 285 285 285 286 286 286 286 286 287 288 287 286 286 286 285 284 285 285 285 285 285 285 286 286 286 286 286 287 287 287 287 287 287 287 287 287 287 288 288 288
302 302 302 300 298 301 303 299 298 301 303 302 301 304 304 303 302 303 304 301 299 300 301 301 302 302 297 294 293 293 292 292 291 291 291 291 290 289 288 288 287 287 286 286 285 285 285 285 285 286 286 285 285 286 287 287 286 286 286 285 285 284 285 285 285 285 285 285 286 286 286 286 286 286 286 287 287 287 287 287 287 287 287 287 287 287
302 303 304 301 298 300 300 298 298 299 301 301 301 302 300 299 302 304 303 300 298 300 301 301 300 298 295 294 292 292 293 292 291 291 291 291 290 289 288 287 286 286 286 285 285 285 285 285 285 285 285 285 285 286 286 286 286 286 285 285 284 284 285 285 285 285 285 285 285 286 286 286 286 286 286 286 287 287 287 287 287 287 287 287 287 287
300 304 306 302 301 301 295 296 298 297 299 303 303 300 298 299 302 302 301 301 300 300 300 299 299 298 298 297 293 292 294 293 292 291 291 290 289 288 287 286 286 285 285 285 285 284 285 285 285 285 285 285 285 286 286 286 285 285 284 284 284 284 285 285 285 285 285 285 285 286 286 286 285 286 286 286 286 286 286 287 287 287 287 287 287 287
297 305 307 300 300 300 294 296 300 298 297 300 300 298 297 300 302 300 299 299 299 298 298 299 298 297 298 298 295 294 294 293 292 291 291 290 288 287 286 285 285 285 284 284 284 284 285 285 285 285 285 285 285 285 285 285 284 284 284 284 284 285 285 285 285 285 285 285 285 286 286 285 285 285 286 286 286 286 286 286 286 286 286 286 286 287
297 302 305 300 300 299 298 299 300 300 299 298 299 299 299 299 299 298 298 298 298 298 298 298 297 297 299 298 295 294 293 292 291 291 290 288 287 286 285 285 284 284 284 284 284 285 284 285 285 285 285 285 285 285 284 284 284 284 284 284 285 285 285 285 285 285 285 285 285 286 285 285 285 285 286 286 286 286 286 286 286 286 286 286 286 286
298 300 301 302 302 299 300 299 297 298 299 300 302 300 298 299 298 296 296 297 297 298 297 297 296 297 298 296 294 294 292 291 291 290 288 287 285 285 285 284 284 284 284 284 284 284 284 285 285 285 285 285 284 284 284 284 284 284 284 285 285 285 285 285 285 285 285 285 285 285 285 285 285 285 285 286 286 286 286 286 286 286 286 286 286 286
299 300 300 302 302 300 299 297 294 297 297 298 301 298 296 298 298 297 297 296 296 297 297 296 296 296 296 296 294 293 291 290 290 288 286 285 285 285 284 284 284 284 284 284 284 284 285 285 285 285 285 285 284 284 284 284 284 284 285 285 285 285 285 285 285 285 285 285 285 285 285 285 285 285 285 286 286 286 286 285 285 285 286 286 286 286
297 299 300 302 301 299 298 294 292 294 294 296 296 295 295 296 296 298 297 295 294 295 295 295 295 295 295 295 293 292 290 289 288 286 285 285 284 284 284 284 284 284 284 284 284 284 285 285 285 285 285 284 284 284 284 284 284 285 285 285 285 285 285 285 285 285 285 285 285 285 285 285 285 285 285 285 285 285 285 285 285 285 285 285 286 286
296 298 300 300 299 297 296 293 291 292 294 297 294 292 293 294 294 295 294 292 292 293 294 293 293 294 294 293 292 291 289 287 286 285 285 285 284 284 284 284 284 284 284 284 284 284 285 285 285 285 284 284 283 284 284 284 285 285 285 285 285 285 284 284 285 285 285 285 285 285 285 285 285 285 285 285 285 285 285 285 285 285 285 285 285 285
297 299 300 299 298 297 296 296 295 295 296 297 293 291 292 292 292 292 291 290 291 293 293 292 291 293 293 293 291 289 288 286 285 285 284 284 284 284 284 284 284 284 284 284 284 284 285 285 285 284 284 284 284 284 284 284 284 284 284 284 284 284 284 284 284 284 285 285 285 285 285 285 285 285 285 285 285 285 285 285 285 285 285 285 285 285
297 299 301 300 297 296 297 297 297 297 297 295 292 291 291 291 291 292 291 290 291 292 291 291 291 291 291 291 289 288 286 285 285 284 284 284 284 284 284 284 284 284 284 284 284 285 285 285 284 284 283 284 284 284 284 284 284 284 284 284 284 284 284 284 284 284 284 284 284 284 284 284 285 285 285 285 285 285 285 285 285 285 285 285 285 285
299 299 301 301 298 297 299 298 297 298 297 295 294 291 291 291 291 292 292 290 291 291 290 291 291 290 290 289 287 286 285 284 284 284 284 284 284 284 284 284 284 284 284 284 285 285 285 284 284 283 284 284 284 284 284 284 283 283 283 284 283 283 283 283 284 284 284 284 284 284 284 284 284 284 285 285 285 286 285 285 285 285 285 284 284 285
300 299 298 299 299 298 299 297 296 296 295 296 295 291 291 291 290 291 291 290 290 290 290 290 289 289 288 287 286 285 284 284 284 284 284 284 284 284 283 284 284 284 284 285 285 285 284 284 283 284 284 284 284 283 283 283 283 283 283 283 283 283 283 283 284 284 284 284 284 284 284 284 284 285 285 285 285 286 286 285 285 285 284 284 284 285
298 298 295 296 298 298 297 296 295 295 295 295 294 291 291 291 290 290 290 289 290 290 289 289 288 287 286 285 285 285 284 284 284 284 284 284 284 284 283 284 284 284 285 285 285 284 284 283 284 284 284 283 283 282 283 283 283 282 282 282 282 282 283 283 284 284 284 284 284 284 284 284 284 285 285 285 285 286 285 285 285 284 284 284 284 285
295 300 297 294 296 297 296 296 295 295 295 294 292 290 290 291 290 290 290 289 289 289 288 287 286 285 285 285 285 284 284 284 284 284 284 283 283 284 284 284 284 284 285 284 284 283 283 284 284 284 283 282 282 282 283 283 283 282 282 281 281 282 282 283 283 283 284 283 283 284 284 284 285 285 285 285 285 286 285 285 285 284 285 284 284 285
294 299 298 295 296 297 297 297 295 294 294 293 291 290 290 291 290 289 289 288 288 287 286 285 284 284 285 285 284 284 284 284 284 284 283 283 283 284 284 284 284 285 284 284 283 283 283 284 284 283 282 282 282 283 283 283 282 282 281 280 281 282 281 281 282 283 283 283 283 284 284 284 285 285 285 285 285 285 285 285 285 285 285 285 284 284
297 298 297 296 297 297 296 295 293 292 293 292 292 291 290 290 289 288 288 287 286 286 285 284 284 284 284 284 284 284 284 284 284 283 283 283 283 284 284 284 284 284 284 283 283 283 283 283 282 281 281 282 282 282 282 281 281 281 280 281 281 281 281 281 282 283 283 283 283 284 284 284 285 285 285 285 285 285 285 285 285 285 285 285 284 284
293 297 298 296 297 297 295 293 292 291 292 293 292 291 290 289 287 286 286 286 285 285 284 284 283 284 284 284 284 284 284 283 284 283 283 283 283 284 284 284 284 283 283 283 283 283 283 282 281 281 281 281 281 280 280 280 279 280 280 281 281 281 281 281 282 282 283 284 283 283 284 284 284 284 284 284 284 285 285 285 285 285 285 285 284 284
292 296 296 292 296 298 294 291 292 292 292 291 291 291 290 288 286 285 285 285 285 285 284 284 284 284 284 284 284 283 283 283 284 283 283 283 284 284 284 283 283 283 283 283 283 283 282 281 281 281 280 280 279 279 278 279 279 280 280 280 280 280 280 281 281 282 283 283 283 283 283 284 284 284 284 284 284 285 285 286 285 285 284 284 284 285
298 298 293 290 294 296 293 291 292 292 292 290 290 291 289 287 286 285 285 285 285 284 284 284 284 284 284 284 284 283 284 284 283 283 283 283 283 283 283 283 283 283 283 283 282 282 281 280 280 280 279 278 278 277 277 278 279 279 279 278 279 279 280 280 281 281 282 282 282 282 282 283 284 284 284 284 284 285 286 285 285 284 284 284 285 285
299 298 293 291 293 293 291 291 291 291 291 291 291 291 288 286 285 284 284 285 284 284 284 283 284 284 284 284 284 284 283 283 283 283 283 283 283 283 282 282 282 282 283 282 281 281 280 280 279 278 277 277 277 276 277 277 278 279 278 278 278 279 279 280 280 281 281 281 282 282 282 283 283 284 284 284 285 285 285 285 285 285 285 285 285 285
295 296 294 292 292 292 291 290 290 290 291 291 291 290 287 285 285 284 284 284 284 284 284 283 284 284 284 284 284 283 283 283 283 283 283 282 282 282 282 282 282 282 282 281 280 280 280 279 278 276 276 277 276 276 276 276 278 278 277 277 277 278 279 280 280 281 281 281 282 282 282 283 283 283 283 284 285 285 285 285 285 285 285 285 285 285
289 292 293 292 291 291 291 290 290 291 291 290 290 289 286 285 285 284 283 283 284 284 284 284 284 284 284 284 283 283 283 283 282 282 283 282 282 282 282 281 282 281 281 280 280 279 278 277 276 275 276 276 276 275 276 276 277 276 276 276 277 278 279 280 280 280 280 281 281 282 282 282 283 283 283 284 284 285 285 285 285 285 285 285 285 285
288 289 292 293 291 290 290 290 290 291 291 290 288 287 286 285 284 284 283 283 284 284 284 284 284 284 284 283 283 283 283 282 282 282 282 282 281 281 281 281 281 280 280 280 279 278 276 276 275 275 275 275 275 275 275 275 275 275 275 276 276 277 278 279 279 280 280 281 281 282 282 282 282 283 283 284 284 285 285 285 285 285 285 285 285 286
292 290 290 292 291 289 289 290 290 290 290 289 287 286 285 285 284 283 282 283 284 284 284 284 284 284 283 283 283 282 282 282 282 282 282 281 281 281 280 280 280 280 279 279 278 276 275 275 274 274 274 275 275 274 274 273 273 274 275 275 276 276 277 278 278 279 280 280 281 282 282 282 282 283 283 283 284 284 284 285 285 285 285 285 286 286
292 289 288 290 290 289 289 289 289 289 289 287 286 286 285 284 284 283 282 283 284 284 284 284 284 283 283 282 282 282 282 282 281 281 281 281 280 280 280 279 279 279 279 279 276 275 275 274 273 273 274 274 274 273 273 272 272 273 274 274 275 276 276 277 278 278 279 280 281 282 282 282 282 283 283 284 284 283 284 285 285 285 285 285 286 286
291 290 289 289 289 289 289 289 287 287 288 287 286 286 285 284 283 283 284 284 284 284 284 283 283 283 282 282 282 281 281 281 281 280 280 280 279 279 279 279 279 279 279 277 275 274 274 273 273 273 274 274 273 272 272 272 272 273 274 274 275 275 276 277 277 278 279 280 281 282 283 283 283 283 284 284 283 284 284 285 285 285 285 285 286 286
291 291 292 290 287 287 288 287 286 287 287 286 285 285 284 284 283 284 284 284 283 284 283 283 283 282 282 281 281 281 280 280 280 280 279 279 279 278 278 278 278 278 277 275 274 273 273 272 272 273 273 273 272 272 272 271 272 272 273 274 275 275 276 276 277 277 278 279 281 282 283 283 283 284 284 284 284 284 285 285 286 285 286 286 286 286
289 290 292 289 286 286 287 287 286 286 286 286 285 284 284 284 284 284 284 283 283 283 283 282 282 281 281 281 280 280 280 279 279 279 278 278 278 278 278 278 278 277 276 274 273 273 272 272 272 273 272 271 271 271 271 271 271 272 272 273 274 275 275 276 276 277 278 279 281 282 282 283 284 284 285 285 285 285 285 285 286 286 286 286 286 285
289 290 290 288 287 287 287 286 286 286 286 285 285 284 284 284 284 283 283 283 283 283 282 282 281 281 280 280 279 279 279 278 278 278 278 278 278 277 277 277 277 276 274 273 273 272 272 272 272 272 271 271 271 271 270 270 271 271 272 273 274 274 275 275 276 277 278 279 280 282 282 283 284 285 285 285 285 285 285 286 286 286 287 286 285 285
287 288 288 287 287 286 285 286 286 285 285 285 284 284 284 284 283 283 283 283 282 282 282 281 281 280 280 279 279 278 278 278 277 277 277 277 277 277 277 277 276 275 273 272 272 272 271 271 271 271 270 270 270 270 270 270 270 271 272 273 273 274 274 275 275 277 277 279 280 282 283 283 284 285 285 285 285 286 286 287 286 286 287 286 285 284
285 287 287 287 286 285 284 285 285 284 284 284 284 284 284 283 283 283 282 282 282 281 281 280 280 280 279 278 278 278 277 277 277 277 277 277 276 276 276 276 275 273 273 272 271 271 271 271 270 270 270 270 269 269 269 270 270 271 272 272 272 273 274 274 275 276 277 278 280 281 282 283 284 285 285 285 286 286 286 287 287 287 286 286 285 283
286 286 286 285 285 284 284 285 284 284 284 284 283 284 283 283 283 282 282 282 281 281 281 280 279 279 278 278 277 277 276 276 276 276 276 276 276 276 275 274 273 272 272 271 271 271 271 270 270 269 269 269 269 269 269 269 270 271 271 272 272 273 273 274 275 275 277 278 280 281 282 283 284 285 285 285 286 286 286 286 287 287 286 286 285 283
286 286 285 285 284 284 284 284 284 284 284 283 283 283 283 283 283 282 282 281 281 280 280 279 278 278 278 277 277 276 276 276 276 276 276 275 275 275 274 273 272 272 271 271 271 270 270 270 269 269 269 269 269 269 269 269 270 271 271 271 272 272 273 274 274 275 277 278 279 281 282 282 283 284 284 285 285 286 286 286 287 287 286 285 284 282
285 285 285 284 284 283 284 284 284 283 283 283 283 283 282 282 282 282 281 281 280 280 279 278 278 277 277 277 276 275 275 275 275 275 275 274 274 274 273 272 271 271 271 270 270 270 269 269 269 268 268 268 268 268 269 269 270 271 271 271 272 272 273 273 274 275 276 277 279 281 280 281 283 284 284 284 285 285 286 286 287 286 286 285 284 282
285 285 285 284 284 284 284 284 284 283 283 283 283 282 282 282 281 281 281 280 280 279 279 278 277 277 276 276 275 275 275 275 275 274 274 273 273 272 272 271 271 270 270 270 269 269 269 269 268 268 268 268 268 268 269 269 270 270 271 271 272 272 273 273 274 274 275 277 279 279 279 280 282 283 283 284 285 286 286 286 287 286 286 285 284 282
Wind_Speed
9 8 6 2 4 5 5 3 3 2 3 4 3 2 3 4 6 8 6 3 6 5 4 3 5 8 8 10 11 21 32 31 27 28 28 28 30 31 32 32 32 33 34 37 40 42 43 43 43 44 44 44 44 44 44 44 45 45 44 42 41 39 37 36 35 33 32 30 28 26 24 21 19 16 15 14 13 14 14 15 15 16 16 17 18 19
7 9 4 4 6 4 3 2 3 3 3 3 3 2 4 3 6 9 4 3 6 5 3 3 8 9 7 9 10 22 27 22 22 23 24 25 27 29 31 32 33 33 36 40 43 44 45 45 46 46 47 48 49 49 49 49 49 48 46 46 44 42 40 37 36 34 32 31 30 29 28 26 24 21 19 18 16 16 15 15 15 16 17 19 20 21
7 5 5 5 3 2 2 3 3 4 4 2 1 1 5 2 5 9 4 2 3 2 4 3 7 8 5 7 12 20 18 16 22 23 22 24 26 28 30 31 33 36 39 42 44 45 46 47 48 49 50 50 51 51 52 52 52 51 50 50 47 45 42 39 37 35 33 31 29 27 27 27 26 23 21 21 20 19 19 18 19 19 20 22 23 23
5 2 4 2 1 4 2 5 5 4 3 1 1 2 5 4 3 4 3 4 5 1 3 4 4 4 1 6 11 16 16 19 22 23 24 26 25 25 27 29 32 35 38 41 43 45 46 47 48 49 49 49 50 50 51 52 52 52 52 51 49 47 44 41 38 36 34 33 30 28 26 26 26 24 22 21 20 19 20 20 21 21 22 22 23 23
2 2 2 3 4 4 2 5 6 5 4 2 2 1 5 5 2 4 6 8 7 1 1 4 3 2 1 5 7 8 13 17 20 23 25 26 26 26 28 31 33 34 35 38 41 43 45 45 46 46 47 47 47 46 48 49 48 48 50 49 48 46 44 42 39 37 35 34 33 32 31 29 29 27 25 24 23 21 21 21 20 20 20 21 21 21
1 3 3 3 5 6 5 4 4 3 3 4 3 4 5 5 6 7 7 7 5 3 2 3 4 4 1 6 5 2 6 11 15 20 21 23 26 28 30 32 33 35 36 37 39 42 43 44 44 45 46 46 44 42 43 44 43 44 47 48 47 45 43 41 39 37 35 34 33 33 33 33 32 32 29 26 26 25 24 23 23 21 20 20 21 20
1 2 2 3 3 5 6 3 1 2 3 5 2 3 3 3 6 6 4 2 3 4 3 3 2 5 2 4 3 2 6 8 10 14 16 20 24 26 27 29 32 34 37 38 40 42 43 43 44 45 46 45 42 40 40 40 40 43 46 47 45 44 42 40 39 37 35 34 33 32 32 31 30 31 30 27 26 26 25 25 25 24 23 23 23 22
1 4 6 5 4 5 6 4 2 3 4 3 1 1 3 5 5 3 1 1 1 4 4 3 2 3 4 1 4 3 7 8 9 9 13 18 22 24 26 27 30 32 35 38 40 42 44 43 43 43 43 43 41 39 38 37 38 42 45 45 44 43 41 40 38 36 35 34 34 33 32 31 29 29 29 28 27 26 26 26 26 26 26 25 26 26
2 4 5 4 5 5 4 3 3 4 2 5 3 3 4 4 2 2 2 1 1 2 4 4 1 2 6 3 3 1 5 8 8 7 9 16 20 23 26 27 29 31 33 37 39 41 44 44 44 43 41 42 41 38 36 35 36 40 44 44 43 42 41 40 38 36 34 33 34 35 34 33 32 30 29 29 28 28 27 28 28 27 27 26 26 27
1 1 1 1 4 4 4 4 3 5 1 8 5 4 3 3 3 3 2 0 1 2 4 6 0 1 7 4 1 2 5 5 6 4 6 14 20 22 25 28 30 33 35 38 40 40 43 44 43 42 40 41 42 38 34 33 35 39 43 45 44 43 43 43 40 37 34 33 34 35 35 35 34 33 32 31 30 29 28 29 29 29 29 28 28 27
2 1 1 1 2 3 5 4 2 5 5 9 6 4 3 4 3 3 1 2 4 4 6 5 1 1 5 4 1 1 2 0 3 4 4 11 19 21 24 27 30 34 37 40 42 42 44 44 43 41 39 41 43 39 34 33 35 38 42 45 45 44 44 45 43 39 35 33 33 34 34 35 36 35 34 33 32 30 28 28 29 28 29 29 29 29
4 1 1 1 2 4 4 3 2 3 5 5 5 5 5 4 3 4 4 4 4 6 7 4 1 1 4 3 1 1 1 2 2 3 5 7 15 21 23 24 28 33 36 40 42 43 45 47 47 44 39 41 44 41 36 34 36 39 43 46 47 46 46 46 45 41 36 34 33 33 33 34 35 35 35 35 33 32 30 29 28 28 28 28 29 29
2 1 4 3 1 4 4 3 4 4 5 5 5 6 6 4 5 5 5 3 2 8 6 1 0 1 4 4 1 4 2 1 1 3 6 8 11 19 22 22 27 33 36 39 41 43 46 49 49 44 40 43 47 45 40 38 38 41 44 47 49 50 49 47 47 44 38 35 34 34 34 34 35 35 35 35 34 33 32 31 30 29 28 28 27 27
3 4 7 3 1 4 4 3 4 4 5 5 3 4 5 3 5 5 5 3 5 9 5 2 1 3 4 2 3 4 3 2 3 6 9 10 12 18 23 25 29 35 37 38 39 43 47 49 48 43 41 45 50 47 42 39 39 42 46 49 53 55 52 48 47 46 41 37 36 35 35 34 34 34 34 34 34 34 33 32 32 31 30 29 28 26
3 4 5 3 3 5 5 3 1 2 2 3 1 4 4 2 1 3 4 4 7 10 8 4 1 5 6 2 5 5 4 1 6 10 12 14 16 20 27 32 36 40 42 43 46 50 52 52 50 45 43 47 49 47 41 38 39 44 49 53 57 57 51 47 47 48 44 40 38 37 36 35 34 34 34 34 34 33 34 33 33 32 32 31 29 27
2 3 5 3 3 2 4 1 2 3 1 3 2 4 3 0 3 2 4 4 4 6 6 4 2 3 2 2 2 1 2 5 7 11 14 17 22 30 37 42 48 51 53 56 58 58 58 56 51 47 46 46 47 44 38 35 39 47 53 58 59 54 46 44 47 48 44 41 39 39 38 36 34 33 33 33 33 32 32 32 33 33 32 32 31 29
2 3 6 5 3 1 3 2 1 2 2 2 3 3 4 3 6 1 4 2 2 4 4 3 5 4 1 2 3 3 6 6 8 13 19 24 32 39 41 45 51 53 56 59 59 58 57 55 52 49 46 45 46 42 34 34 43 51 56 58 54 48 43 43 46 46 44 42 41 40 39 37 35 33 33 33 33 32 31 31 32 33 32 32 31 30
1 4 6 4 4 4 2 1 1 3 2 2 3 4 3 1 4 3 2 3 4 4 4 4 10 10 4 2 2 4 8 9 9 15 23 29 33 35 38 44 48 52 57 59 59 59 57 55 53 48 45 45 43 35 31 40 52 55 54 50 47 45 44 43 45 46 45 42 41 41 41 39 37 35 34 34 33 32 32 32 33 33 33 32 31 31
3 3 6 2 3 7 4 4 3 4 3 3 1 2 2 2 3 2 1 3 4 5 5 7 12 9 3 3 2 5 10 12 13 15 18 22 27 32 39 45 50 57 61 61 60 60 58 56 53 48 46 43 35 30 40 53 56 52 49 45 44 44 43 43 46 47 46 43 42 42 42 40 38 36 35 34 34 33 34 34 34 34 33 32 31 31
2 2 4 5 4 6 5 4 3 5 4 3 3 3 3 1 3 2 1 1 2 5 6 9 12 7 1 3 2 6 10 12 16 16 14 19 28 37 43 49 56 60 61 60 59 58 59 57 53 49 46 36 31 40 53 56 53 50 48 46 44 43 42 43 46 47 46 44 43 43 43 42 40 38 37 36 35 35 36 35 35 35 34 33 32 31
1 2 3 6 6 5 3 2 1 1 2 4 4 4 4 1 1 2 1 1 1 3 5 7 11 7 1 2 2 5 10 15 19 16 14 23 36 45 50 56 60 60 60 59 57 58 58 55 53 50 39 32 40 53 56 52 50 49 47 45 44 43 43 44 46 46 45 44 43 44 44 42 40 39 39 38 37 37 37 37 36 36 35 34 33 33
1 1 2 5 6 4 3 3 0 3 4 3 3 1 0 1 2 3 4 2 2 1 3 5 9 8 1 2 2 4 12 18 19 16 18 31 43 51 58 62 61 60 58 57 57 58 55 54 53 44 34 40 54 58 54 51 49 47 46 44 42 42 44 46 46 46 45 43 43 43 43 41 40 39 40 39 38 38 38 38 37 37 36 35 35 33
1 2 0 4 4 3 4 3 4 9 11 8 4 2 2 2 4 2 4 4 1 2 4 4 8 8 0 4 2 10 19 21 22 24 27 36 48 55 59 62 61 59 58 58 59 57 55 55 47 36 39 54 60 56 54 52 47 46 46 42 41 44 45 46 45 45 44 43 43 43 42 40 39 39 40 39 39 38 38 38 38 37 36 35 34 33
1 2 2 4 5 2 3 4 5 7 9 7 4 3 2 2 2 4 3 2 3 4 2 2 9 9 1 2 11 23 26 23 26 34 37 42 52 57 58 60 59 58 60 61 59 58 58 51 38 37 52 62 59 56 54 49 46 45 44 41 43 45 45 44 43 43 43 43 43 42 41 40 39 39 39 39 38 37 37 37 37 36 35 35 34 33
2 1 2 4 7 6 5 4 3 2 3 4 2 3 3 3 3 1 1 3 2 4 1 3 10 11 6 10 21 25 21 19 29 41 44 46 51 54 57 59 58 58 59 58 58 59 53 41 38 51 62 61 57 55 51 47 46 46 44 43 45 45 44 43 42 42 42 41 41 40 40 40 40 40 39 38 37 36 36 36 35 35 35 34 34 33
1 1 3 4 3 6 6 6 6 5 3 2 2 2 3 3 4 2 1 1 3 6 7 5 9 15 17 19 22 19 14 16 28 42 48 50 52 55 56 56 58 58 56 56 57 52 43 43 53 62 62 57 54 51 50 50 50 48 46 45 44 45 45 44 42 42 41 40 40 40 40 40 40 39 39 38 37 36 35 35 35 35 35 34 34 33
3 1 2 5 3 5 6 9 7 4 4 4 1 3 2 1 3 3 1 1 5 10 10 7 10 19 23 23 21 17 14 15 23 36 45 49 53 55 55 56 57 55 55 55 48 40 43 55 63 63 58 54 50 50 53 52 50 50 48 45 46 46 46 44 42 42 41 41 41 40 41 41 40 39 39 38 37 36 34 35 35 35 35 35 33 32
4 2 1 3 5 7 8 11 9 5 5 4 1 3 1 1 1 4 1 5 8 8 9 11 17 21 22 23 20 16 16 16 21 34 44 49 53 55 56 58 57 55 55 48 38 40 54 63 62 60 56 51 51 55 55 51 49 49 47 47 49 48 46 45 42 41 41 41 41 41 41 40 40 39 38 37 36 34 33 34 34 35 35 34 33 32
4 1 0 3 5 9 9 11 8 4 4 2 5 3 1 1 2 3 3 9 9 7 11 19 23 21 20 20 17 17 23 25 29 42 50 52 57 58 57 57 56 54 48 39 40 52 60 60 59 58 55 53 57 59 54 50 49 48 48 52 54 51 48 46 43 42 41 41 40 40 39 39 39 38 37 35 33 32 32 33 34 34 34 33 32 31
3 1 1 2 5 9 9 7 5 4 4 1 5 3 2 3 3 5 6 9 10 12 16 19 22 20 15 13 16 27 38 39 41 50 53 52 57 57 54 55 53 47 41 42 54 61 59 58 59 56 56 58 60 58 53 51 48 47 53 60 58 52 48 47 45 43 42 41 40 39 38 38 38 37 36 34 33 32 32 32 33 33 33 32 32 32
4 4 1 3 3 7 5 3 7 7 4 2 3 1 2 3 4 6 8 8 10 15 18 18 20 16 11 16 27 39 46 42 39 45 48 50 56 56 52 50 46 43 46 53 60 61 59 58 56 57 61 62 59 56 53 50 49 52 61 65 58 49 48 48 45 42 41 40 39 38 38 39 38 37 35 33 33 32 32 33 34 33 33 33 33 33
5 4 2 4 5 6 2 5 13 10 3 4 1 3 5 6 7 8 8 7 11 17 20 19 15 10 11 22 32 38 40 37 35 38 44 50 57 58 51 45 45 50 57 59 61 63 60 57 58 62 62 56 53 55 56 57 59 61 63 59 50 47 49 46 42 41 41 38 37 38 37 37 37 36 35 34 34 33 33 34 35 35 35 35 35 35
2 2 3 4 4 7 8 11 14 9 5 4 2 1 5 11 13 13 10 10 13 13 13 14 11 10 17 24 25 28 32 31 32 39 45 49 53 51 45 45 51 58 61 62 63 61 57 59 61 58 53 53 57 62 66 67 63 58 54 49 45 46 47 41 40 42 39 35 36 38 37 37 37 36 35 34 34 34 35 35 35 35 35 36 35 34
2 3 2 2 1 7 12 14 12 6 5 4 1 3 5 11 14 17 16 14 14 12 10 12 11 15 22 22 21 26 31 35 43 51 52 48 44 39 42 50 57 60 62 62 59 57 60 63 57 51 55 65 68 67 64 59 51 46 45 44 44 45 42 39 40 40 36 35 38 39 38 37 36 36 35 34 34 36 37 36 36 36 35 35 34 34
3 4 2 1 0 3 7 10 10 6 3 2 3 2 5 8 11 20 22 15 14 14 13 14 15 20 25 28 32 36 41 49 59 61 52 43 37 37 44 53 58 59 59 57 59 63 64 57 53 60 71 71 64 58 52 46 42 41 43 44 44 42 39 38 38 36 35 37 39 39 38 36 36 37 36 34 35 36 36 36 36 36 35 34 35 36
3 3 2 1 0 2 4 5 4 6 5 2 0 1 6 9 12 18 22 18 14 10 10 15 20 24 31 37 40 43 49 56 58 56 51 43 42 47 52 56 59 56 53 56 62 63 56 53 62 73 69 56 49 48 46 43 42 41 43 45 43 40 39 37 36 36 37 38 39 39 38 36 36 38 37 36 36 36 35 35 36 37 36 36 37 37
5 4 2 3 1 1 4 3 4 6 5 4 1 1 5 11 12 12 17 19 11 6 11 17 20 26 36 41 43 47 54 50 38 41 52 53 53 59 59 58 57 53 53 59 59 52 52 61 70 67 54 41 41 47 49 45 41 39 43 46 44 41 40 38 37 38 39 39 40 38 36 35 36 38 38 37 36 35 34 34 36 38 38 38 38 38
9 4 2 3 2 1 1 4 4 5 5 1 2 4 10 17 19 14 14 13 5 9 21 23 22 32 40 42 46 48 45 31 17 27 48 59 62 65 63 60 57 55 57 57 50 49 59 62 56 51 47 40 38 46 48 43 41 44 48 48 44 40 38 37 36 37 39 40 39 37 35 35 36 37 37 35 33 34 34 35 38 39 37 37 38 38
9 4 4 4 2 2 2 3 3 4 4 3 3 10 19 26 25 17 11 7 8 22 34 31 31 39 41 42 47 42 27 14 11 25 48 60 62 62 61 60 59 58 57 51 46 54 63 57 46 45 47 42 39 43 46 44 47 50 49 45 41 37 38 38 38 40 43 42 40 37 34 34 34 34 33 33 33 34 35 37 38 37 36 37 37 37
6 4 4 4 2 2 3 3 3 3 4 3 3 15 28 31 24 14 8 9 18 34 42 38 37 41 42 44 43 29 16 14 20 36 56 62 59 58 58 57 58 59 55 48 50 59 57 48 46 48 46 42 40 44 49 50 50 47 43 41 40 40 42 43 43 47 48 45 42 38 33 31 31 31 31 32 33 34 36 36 36 36 37 37 37 38
2 1 3 3 2 4 4 3 3 4 5 4 11 24 34 30 17 8 9 16 27 40 47 44 41 41 43 44 38 26 27 37 44 53 61 60 57 60 60 57 58 55 46 42 51 58 50 42 46 49 44 40 44 48 49 49 48 44 41 41 42 44 46 46 48 50 49 46 44 39 33 29 29 30 31 31 33 35 35 34 34 36 37 36 37 38
2 2 2 1 2 3 1 3 6 4 2 12 26 32 30 19 8 9 19 28 34 41 44 44 42 41 41 43 40 37 43 52 54 55 56 55 57 60 59 59 59 52 44 47 55 53 46 44 49 47 40 41 48 49 46 46 45 41 40 42 44 46 46 46 48 49 47 45 43 38 33 30 28 29 30 31 32 34 33 33 34 35 35 36 37 37
1 2 3 2 2 2 1 2 4 3 6 21 28 21 15 12 12 21 29 32 36 39 40 40 41 41 41 42 43 44 48 51 52 51 53 55 57 57 57 58 55 47 45 51 54 48 44 47 48 43 39 44 48 46 45 47 43 39 42 45 46 45 44 46 49 49 46 44 41 37 33 30 29 29 29 30 31 31 32 33 33 34 35 36 35 35
1 1 1 2 1 1 1 1 2 9 18 26 22 14 16 22 27 31 32 33 37 39 37 38 40 41 41 43 44 45 46 48 49 50 53 55 56 56 57 55 50 46 47 49 47 44 44 46 45 42 44 46 46 45 47 47 41 41 46 47 44 44 45 47 50 48 45 44 41 36 32 30 29 29 28 28 29 29 31 32 33 34 36 35 34 34
2 3 3 2 2 2 5 9 15 22 25 26 25 25 30 32 32 33 34 36 38 39 37 38 42 43 43 44 45 44 44 46 49 50 52 52 52 53 55 52 48 49 52 51 46 44 44 44 43 44 47 47 45 45 48 46 43 46 48 46 44 45 46 48 50 48 45 44 41 36 33 31 30 29 29 28 29 29 31 32 34 35 36 35 33 34
4 2 2 0 3 7 11 16 22 25 26 29 31 31 31 31 32 35 38 40 42 43 43 43 44 46 47 46 45 44 45 47 49 51 50 50 51 53 54 53 51 50 51 51 48 46 46 44 43 45 48 49 47 46 48 48 47 48 48 46 45 45 46 49 50 47 45 44 40 36 35 34 32 31 30 29 28 29 31 33 34 36 35 35 34 33
2 1 2 1 3 4 6 10 17 22 28 33 33 31 33 38 40 42 44 45 47 50 50 49 48 49 50 49 47 47 49 49 49 49 47 47 51 54 53 53 53 51 51 51 49 48 47 46 47 49 50 51 50 47 46 47 48 47 47 46 45 45 47 49 48 46 45 43 40 37 35 34 33 32 31 30 29 29 31 33 34 35 34 34 34 32
2 1 2 2 2 4 10 17 24 28 27 26 26 30 38 45 48 49 49 48 50 53 55 54 54 53 52 51 50 50 50 49 47 46 45 46 51 53 51 51 51 50 51 52 50 48 49 49 50 51 51 51 51 48 46 47 47 46 46 45 45 45 47 48 47 46 44 42 39 36 34 34 33 31 32 32 30 30 32 33 33 33 32 32 33 29
3 3 3 3 5 7 11 18 27 27 23 24 30 37 43 47 49 49 49 49 51 55 57 58 58 55 52 51 51 50 49 47 45 43 44 47 50 51 51 51 50 49 52 53 49 48 50 51 51 51 52 52 51 48 48 48 46 45 45 45 44 45 47 47 46 45 43 41 39 35 34 35 32 30 32 32 31 31 32 32 32 32 31 31 31 25
3 3 3 3 4 4 7 16 22 18 16 25 36 41 44 47 46 45 46 48 50 52 54 56 58 56 53 51 50 47 45 44 43 43 45 47 48 49 51 52 52 52 53 51 49 49 50 50 51 53 54 53 51 49 48 47 45 44 44 43 43 45 46 46 46 44 43 42 38 35 35 36 34 31 32 32 31 32 32 31 31 31 31 31 28 21
3 4 5 4 5 8 15 22 24 20 21 30 38 41 43 44 41 41 44 46 47 49 52 53 53 53 53 52 50 45 42 41 41 43 46 47 48 49 50 50 51 53 53 51 50 52 52 53 54 54 54 53 50 48 47 46 45 44 43 42 43 44 44 44 44 44 44 41 38 36 36 37 34 32 32 30 29 31 31 31 31 31 30 29 26 19
Wind_Direction
41 49 44 20 305 299 287 236 193 187 156 160 160 202 244 244 286 290 273 303 0 348 289 316 313 296 332 4 14 41 52 49 44 48 47 44 44 40 36 33 29 27 23 20 20 19 17 16 13 12 10 9 9 8 7 7 7 6 5 4 4 4 2 1 1 0 359 356 352 348 343 336 330 324 315 310 308 304 302 301 298 295 294 290 287 284
46 57 21 281 260 259 282 236 158 113 114 130 142 266 294 234 271 294 286 301 14 25 275 332 335 317 13 29 28 52 57 47 41 46 43 41 41 36 33 28 24 21 18 17 17 15 14 12 10 9 7 5 5 3 2 2 1 360 359 359 358 357 356 356 355 354 355 355 352 347 344 339 333 328 322 318 316 311 307 305 304 302 301 298 294 290
45 50 316 291 246 148 65 56 100 107 113 108 93 352 322 302 280 296 294 285 11 21 279 346 347 322 29 60 47 55 67 62 51 50 44 40 37 33 30 25 20 17 15 14 13 12 11 9 8 6 4 3 2 360 359 358 357 356 355 355 354 353 353 352 350 348 346 346 345 342 341 338 334 331 325 320 317 313 309 308 306 304 303 300 297 294
55 13 320 345 112 131 83 21 49 63 75 109 26 25 318 322 337 306 302 319 328 292 265 313 319 302 47 89 66 58 66 66 54 50 45 40 37 32 28 24 20 16 12 10 8 7 7 6 5 4 2 0 358 357 356 355 354 353 352 352 352 351 351 349 347 345 342 338 336 332 331 330 330 330 328 325 322 318 314 312 310 307 305 303 300 297
114 279 335 43 46 92 97 9 40 44 9 288 225 307 299 304 280 247 280 316 327 345 294 324 328 280 170 89 74 54 56 55 44 41 39 33 31 27 24 22 18 15 11 8 5 3 2 1 0 360 359 356 355 354 352 351 351 350 350 349 349 348 348 347 345 343 340 336 332 328 323 321 321 322 324 323 321 320 318 315 310 308 306 304 302 301
67 310 326 26 25 45 75 39 33 49 359 313 251 228 257 284 275 267 289 320 356 354 313 26 6 295 182 88 86 43 47 48 39 38 32 26 24 22 20 17 13 11 8 5 3 0 358 357 355 354 355 353 351 349 347 346 346 346 346 346 345 345 344 343 342 341 339 336 334 331 327 324 321 319 319 319 317 316 315 313 310 308 305 301 301 302
54 4 21 61 46 33 52 52 311 127 56 346 294 196 209 273 277 277 294 345 13 310 285 87 77 268 286 86 131 111 58 43 35 35 27 21 20 18 16 13 9 7 4 1 359 358 355 352 350 349 349 349 346 344 342 341 342 343 343 343 342 341 340 339 338 337 337 335 333 332 330 327 324 319 315 314 311 309 308 307 306 306 305 303 302 301
328 4 19 31 47 35 31 11 265 151 82 337 302 66 323 298 280 255 189 136 270 294 318 47 108 251 287 208 182 134 63 39 25 24 17 14 14 14 11 8 6 3 0 358 354 354 352 348 346 344 344 345 342 338 337 337 338 341 342 341 339 338 337 336 335 333 333 333 331 329 327 324 322 318 313 311 308 305 304 302 301 302 301 301 302 302
6 6 2 2 19 19 4 325 252 152 109 281 290 11 324 293 272 167 137 206 280 344 322 313 55 287 279 238 180 116 63 36 16 10 3 5 6 7 6 2 1 358 356 356 351 349 348 344 342 340 339 342 340 336 333 333 335 339 341 340 337 335 335 335 333 330 327 328 327 325 324 321 319 317 314 311 308 306 304 300 299 299 299 298 298 299
13 14 308 59 40 355 299 283 209 149 263 291 310 16 51 58 57 85 92 72 25 21 283 279 22 284 282 290 359 28 59 27 354 349 349 2 4 1 1 357 355 354 352 351 348 345 344 342 339 336 335 339 339 334 328 326 330 335 338 339 336 333 333 334 334 330 326 325 323 321 321 320 318 316 314 311 309 309 308 304 301 300 299 298 298 298
300 253 239 85 49 295 288 298 208 182 277 313 339 356 29 48 41 49 53 66 38 331 285 276 196 157 286 303 2 357 49 208 307 336 334 360 4 358 356 354 352 351 348 346 344 342 341 339 336 334 333 336 338 332 323 320 325 331 334 337 336 332 330 331 332 331 326 322 320 318 317 317 316 316 315 312 309 309 310 309 306 304 301 299 298 298
344 36 320 322 335 317 319 334 318 232 287 342 14 357 358 359 6 18 355 28 28 295 281 265 215 149 258 274 119 181 276 223 235 322 313 337 358 355 349 349 350 347 343 341 340 338 339 338 336 333 330 333 336 331 321 317 323 328 330 333 335 331 326 327 329 329 325 320 317 315 314 313 313 314 313 312 310 309 309 309 308 307 305 302 299 298
350 305 314 302 320 349 358 354 347 346 353 14 27 21 22 357 354 358 333 353 278 271 271 184 39 239 238 261 167 176 224 267 261 316 310 305 334 347 345 343 344 342 338 337 336 337 338 337 335 331 327 330 333 330 320 315 320 326 327 330 332 330 324 322 325 327 324 319 315 313 312 310 311 311 310 310 309 309 310 309 307 305 305 303 301 300
340 311 336 357 337 356 38 46 350 333 353 6 19 47 55 25 352 329 309 325 295 284 286 112 145 274 286 281 180 183 182 167 344 329 320 312 316 334 341 338 336 335 335 336 336 336 335 335 334 329 326 327 329 328 318 312 319 325 326 327 328 327 322 317 321 324 323 318 314 312 311 310 309 309 309 309 308 308 309 310 308 305 302 301 300 299
17 324 337 8 327 348 37 76 208 242 321 314 188 110 79 70 353 282 278 293 301 300 304 329 298 279 313 316 180 179 181 208 341 332 324 323 322 330 336 336 336 337 338 338 337 335 334 334 333 329 326 325 326 325 315 310 319 325 325 325 324 323 319 314 317 321 320 316 314 313 312 311 310 309 308 308 308 308 308 309 308 305 301 299 296 295
62 270 277 292 274 327 29 323 182 111 359 282 146 83 21 183 169 219 238 232 272 294 297 306 267 236 306 308 216 209 265 275 306 316 318 324 333 339 341 341 341 340 339 337 335 334 333 333 332 328 325 324 326 323 312 310 321 325 323 322 322 321 316 313 316 319 319 315 313 313 313 312 310 309 308 309 308 307 306 306 306 304 302 298 294 292
34 290 296 335 309 138 68 304 237 72 333 313 56 4 295 182 143 171 275 279 342 291 282 305 297 294 359 303 281 295 295 278 286 316 331 336 342 345 343 341 339 336 334 333 332 331 330 330 329 327 325 325 327 322 311 315 323 323 322 321 321 321 317 314 316 319 319 316 313 313 313 313 310 308 307 307 307 307 305 304 303 302 301 299 296 294
90 298 305 356 338 314 17 23 52 48 29 46 17 305 292 109 104 103 272 327 360 284 278 321 306 308 338 324 282 297 319 331 329 334 340 340 343 342 337 334 332 331 331 330 329 329 328 328 327 327 326 326 326 320 316 322 324 323 323 323 322 320 317 315 317 319 318 315 313 312 313 313 311 308 307 307 308 307 306 303 302 303 302 299 297 296
116 309 296 306 313 306 345 56 21 359 40 84 63 311 30 18 322 16 342 318 330 290 286 305 297 298 313 290 309 336 336 341 336 335 338 337 339 336 331 330 330 330 330 328 328 327 327 327 327 326 326 326 327 324 324 326 324 323 323 322 320 318 315 314 315 317 317 315 312 311 312 312 311 310 309 309 309 309 307 306 305 305 304 301 299 297
124 102 287 282 301 316 355 36 344 324 346 32 49 15 29 158 238 309 330 287 305 286 290 302 298 300 251 231 282 339 338 341 337 336 337 334 334 331 329 329 329 328 327 326 326 326 326 326 326 326 325 327 330 328 327 326 324 324 322 320 319 317 314 313 314 315 316 315 313 312 312 312 312 311 310 310 310 309 307 306 305 305 305 305 302 299
25 103 263 292 334 350 354 22 9 317 331 5 39 14 348 3 264 298 278 136 109 275 286 300 296 294 223 188 261 328 341 346 342 338 336 332 331 330 329 328 326 325 324 324 324 324 324 324 324 324 324 328 330 329 328 326 324 323 322 320 318 317 315 314 314 315 314 313 312 311 312 312 311 312 311 311 310 308 307 306 305 305 306 306 303 302
351 123 236 300 346 347 284 291 313 142 124 80 75 88 55 61 30 342 308 324 100 196 262 285 288 292 314 168 234 339 345 345 345 341 334 331 330 329 327 325 323 322 322 322 322 323 323 323 323 323 324 329 330 329 328 326 324 323 322 320 319 317 316 314 313 313 312 311 309 308 309 309 309 309 309 309 309 309 308 307 307 307 306 305 303 302
152 115 229 280 283 283 300 350 86 112 104 89 82 100 118 110 92 80 298 312 4 273 272 272 281 291 244 178 254 347 343 341 345 340 334 331 328 326 323 322 322 322 322 323 323 323 323 323 323 323 328 330 329 328 327 324 323 322 321 320 319 317 315 314 314 313 311 309 308 308 309 308 306 306 306 306 307 307 307 306 305 305 304 303 302 301
40 69 14 299 284 303 8 41 95 109 92 75 50 50 86 95 113 164 203 312 325 285 289 290 284 289 237 230 320 336 339 342 344 338 333 329 325 322 321 320 321 322 323 323 324 324 324 324 324 328 330 329 328 326 325 323 323 324 322 320 319 317 316 315 313 312 310 309 308 309 309 307 306 305 304 303 304 304 303 303 302 302 302 302 302 300
349 49 39 353 338 346 4 6 332 326 46 68 40 20 58 54 27 85 108 24 316 258 289 311 286 289 307 322 325 331 339 344 339 334 330 325 320 319 320 320 321 322 322 323 324 324 324 326 328 329 329 327 325 324 324 325 326 325 323 321 320 319 318 316 314 312 311 310 309 309 308 307 305 304 303 302 302 302 301 301 301 301 301 301 300 298
15 128 90 75 359 327 323 311 302 313 346 59 86 35 40 59 52 57 84 25 301 293 304 287 274 293 309 318 322 329 344 345 334 329 326 322 319 319 319 320 321 321 322 322 323 324 326 329 328 327 326 324 323 324 326 327 328 327 325 323 323 322 320 318 316 315 314 312 311 309 308 307 305 304 303 301 302 302 302 302 302 301 301 301 299 297
99 98 108 136 197 258 257 264 286 335 322 292 39 42 354 353 72 76 113 267 297 299 294 270 280 301 310 315 321 331 344 340 328 324 322 320 319 319 319 320 319 320 321 322 322 325 329 328 326 325 323 322 324 327 328 327 328 329 327 326 325 324 322 320 318 317 316 314 311 309 307 307 305 305 303 302 303 302 302 304 304 303 302 301 299 296
94 42 48 166 228 250 250 269 294 325 293 274 80 65 333 267 72 74 47 295 300 296 291 301 309 308 308 314 323 332 338 334 325 322 320 319 318 318 319 320 320 321 322 323 325 329 328 326 324 323 323 323 327 329 328 327 328 329 328 328 327 325 322 321 319 317 315 313 311 308 307 307 306 306 305 304 304 302 302 304 304 303 302 301 299 295
108 76 156 178 257 270 267 274 283 282 266 162 121 126 145 194 329 12 304 288 296 289 289 305 310 306 306 314 324 331 331 330 324 320 318 318 318 319 320 320 320 321 322 325 329 328 326 324 323 323 324 327 330 329 326 326 327 328 329 329 327 323 321 320 317 316 315 313 310 308 307 308 308 307 306 306 305 304 304 305 304 303 302 300 298 295
100 270 206 166 275 282 272 269 277 286 290 125 127 154 183 201 276 319 304 292 294 286 288 300 304 301 306 318 324 326 325 323 321 318 317 318 318 319 319 319 319 322 325 327 327 326 325 323 323 325 329 330 330 327 325 324 325 326 327 327 325 320 318 318 317 316 316 314 313 312 311 311 311 310 309 308 307 307 307 307 305 304 303 301 299 296
25 329 275 105 323 290 267 295 317 309 285 183 139 125 297 274 299 323 318 310 306 300 301 307 306 303 319 330 323 321 321 320 318 317 317 319 319 319 319 319 321 325 327 326 326 325 325 324 327 330 331 330 329 327 326 324 324 324 323 323 320 316 316 317 316 315 315 315 316 317 316 316 316 314 313 312 312 311 308 306 304 304 304 304 302 299
24 350 350 56 360 299 291 348 326 327 72 112 37 337 336 339 338 330 323 319 317 313 313 316 313 306 325 328 321 318 319 320 318 318 319 321 321 320 319 322 326 327 326 326 326 325 325 328 332 332 330 330 330 329 328 326 323 321 320 320 317 315 317 317 316 316 314 313 316 317 317 319 321 320 318 316 317 316 312 308 307 307 306 304 303 302
34 1 351 33 350 308 333 340 317 320 54 52 328 307 351 348 336 327 327 322 317 316 314 312 313 317 324 326 323 320 321 320 319 320 321 319 318 318 321 325 326 325 325 324 324 324 328 333 333 332 332 331 329 327 326 324 322 320 321 321 319 319 320 317 316 317 314 312 314 316 316 319 322 323 321 318 318 318 314 311 310 308 306 303 303 304
35 41 35 44 343 303 324 331 323 339 20 346 263 136 12 352 335 323 322 321 320 320 312 310 315 323 326 325 322 319 318 318 319 319 319 317 315 318 324 326 324 324 323 324 324 327 331 333 332 332 331 329 326 325 324 324 324 325 327 327 325 324 322 319 319 319 314 311 313 313 315 316 319 323 322 319 318 317 314 313 311 309 307 305 305 304
32 43 80 63 345 275 317 344 353 359 349 279 193 132 357 348 331 320 318 322 330 324 318 323 325 322 321 320 319 318 317 319 320 317 317 320 322 324 326 324 323 323 323 325 328 330 330 331 331 331 329 326 326 328 329 330 330 330 332 331 329 327 325 323 322 321 317 315 315 315 315 314 317 321 320 317 317 315 315 315 313 310 309 306 306 305
67 69 88 58 39 305 345 18 354 304 307 339 198 286 341 347 344 331 320 323 334 331 325 328 321 316 319 319 320 321 320 320 319 315 318 325 328 327 326 324 324 324 324 326 328 327 326 329 330 329 328 328 331 334 334 333 331 330 331 332 330 328 328 326 325 325 324 323 322 319 316 315 317 318 318 316 316 315 316 316 314 311 309 306 305 304
92 114 42 360 56 15 321 296 260 286 326 11 347 287 351 347 344 334 315 314 327 342 332 326 317 318 323 322 323 325 323 321 317 315 321 327 328 327 326 325 325 325 326 326 325 326 328 329 330 331 330 329 332 335 334 332 331 331 331 331 329 326 326 325 325 327 327 326 326 323 320 317 316 315 315 316 316 316 316 315 314 314 312 308 306 305
69 91 84 13 18 98 280 288 313 330 327 304 259 310 345 341 333 322 304 299 312 339 333 330 324 324 325 324 325 326 323 320 314 315 321 325 326 326 326 327 326 326 326 326 327 332 334 331 329 332 331 327 330 335 336 335 333 330 329 330 328 325 326 327 326 326 325 325 326 324 321 318 314 313 314 315 316 315 314 314 316 316 315 312 308 305
49 49 86 72 20 52 13 312 310 306 286 210 237 315 338 340 331 320 300 289 331 339 336 334 328 325 325 324 324 325 322 317 313 314 318 321 322 323 325 326 327 327 327 327 330 334 333 330 328 329 329 328 331 335 335 334 330 327 329 332 330 326 327 327 325 326 327 327 326 322 318 316 315 314 315 315 315 315 315 317 319 317 316 314 311 310
31 6 25 41 33 19 343 288 242 254 266 230 285 331 340 338 329 324 316 318 336 336 332 330 326 324 323 322 322 323 321 314 311 311 315 319 320 321 324 325 326 327 327 327 332 334 332 330 330 330 329 330 333 333 332 334 334 334 335 334 330 327 330 331 331 332 332 332 331 326 321 319 317 316 317 316 316 315 317 320 320 319 318 316 314 315
23 349 10 35 4 334 317 284 281 259 246 285 334 343 343 337 330 340 329 321 329 328 324 324 324 322 321 320 320 320 314 311 310 311 315 318 320 321 324 324 324 326 325 327 332 334 331 330 331 329 327 330 333 332 331 333 335 334 332 330 329 333 338 339 337 335 334 335 335 332 328 325 321 320 320 319 317 317 318 322 322 321 318 317 317 316
17 322 337 31 330 318 273 293 307 266 240 346 343 341 345 347 340 324 316 317 322 322 319 320 321 320 320 319 318 317 313 311 311 313 316 319 320 321 323 325 326 326 326 328 332 333 331 330 330 328 327 330 332 331 331 332 331 328 327 330 333 339 343 341 336 334 334 337 338 336 334 331 327 324 320 317 317 319 322 326 325 322 320 320 318 312
32 317 311 305 296 307 285 312 319 275 331 348 344 339 348 348 316 309 313 315 318 318 318 319 319 319 321 319 317 317 315 313 314 316 318 319 320 321 323 325 327 328 328 330 333 334 332 330 329 329 329 331 332 331 331 333 330 327 329 333 339 344 343 337 335 336 337 339 339 340 338 333 326 322 317 318 323 325 327 328 325 323 324 320 313 310
126 143 270 276 274 13 4 19 272 280 307 330 337 325 319 317 312 313 316 316 317 319 320 320 318 319 321 320 319 319 317 315 317 319 319 320 321 323 324 325 327 329 330 331 332 332 332 331 330 330 330 331 331 331 331 332 329 328 331 337 344 346 340 335 336 340 341 341 341 342 339 333 328 327 327 331 334 331 328 328 326 326 324 316 310 316
247 205 212 242 228 227 238 254 274 284 297 314 320 312 309 312 315 319 319 316 317 319 321 321 320 321 324 323 321 321 319 318 319 319 320 321 321 323 325 326 327 328 329 330 329 330 332 331 330 330 330 330 331 330 331 332 330 330 335 342 346 343 336 335 339 342 341 341 341 342 341 337 336 338 338 339 337 331 328 328 327 325 320 314 316 327
274 230 183 268 286 268 254 259 277 293 305 314 315 312 313 316 321 324 323 321 321 322 324 325 324 324 326 326 324 323 322 321 321 322 322 322 322 323 325 326 327 328 330 330 330 331 332 331 330 330 330 330 331 330 330 333 333 334 338 343 343 338 334 336 340 342 341 341 342 343 344 343 341 340 338 336 334 331 330 331 329 325 319 317 324 334
291 209 225 272 308 309 290 280 292 308 314 314 315 318 322 325 327 329 328 326 325 326 327 328 328 328 328 329 328 327 324 323 324 324 323 323 324 325 325 326 327 328 330 330 330 330 331 332 331 331 330 330 331 330 329 332 335 337 339 341 339 335 334 338 342 342 340 340 342 343 345 345 342 340 337 336 335 333 333 336 334 326 321 323 331 338
278 262 258 255 270 278 280 292 305 313 312 311 316 323 327 328 329 330 329 327 327 327 328 329 330 330 330 330 330 329 326 325 325 325 324 324 324 324 325 326 327 327 327 329 330 330 331 331 330 330 330 330 330 329 329 331 335 338 339 339 338 337 337 340 342 340 339 340 341 342 345 344 341 339 337 337 337 336 336 339 336 328 325 329 336 340
294 298 277 281 290 272 273 301 319 324 321 322 326 326 327 328 327 327 328 328 328 329 329 330 331 330 330 330 330 329 327 325 325 326 325 324 324 324 325 326 326 326 327 328 329 330 331 330 330 330 330 329 329 329 330 333 337 338 338 338 339 338 338 340 342 341 340 339 340 342 345 343 339 337 335 335 337 338 339 341 338 330 331 336 339 344
335 308 293 305 314 295 295 317 327 327 317 319 322 323 324 325 326 326 326 327 328 329 329 329 329 329 329 329 330 330 327 325 325 326 325 324 324 325 326 326 326 327 327 328 329 329 330 331 330 329 329 329 329 330 332 336 337 337 339 340 339 339 339 341 342 342 340 339 340 342 342 339 338 337 335 335 337 338 340 343 340 334 337 342 344 348
360 323 319 317 295 288 297 310 317 313 302 307 315 320 322 325 325 324 324 325 327 328 328 328 327 327 328 329 330 330 327 326 327 327 325 324 324 325 326 327 326 327 328 329 330 330 330 331 330 330 329 330 330 331 333 335 336 337 340 341 340 340 341 342 342 341 339 338 339 340 338 335 336 337 335 336 338 338 339 341 340 339 343 346 347 350